Regional Weather Roundup
Issued by NWS

Home | Current Version | Previous Version | Graphics & Text | Print | Product List | Glossary On
Versions: 1 2 3 4 5 6 7 8 9 10 11 12 13 14 15 16 17 18 19 20 21 22 23 24 25 26 27 28
000
ASUS45 KBOU 301407
RWRCO

WEATHER ROUNDUP FOR COLORADO
NATIONAL WEATHER SERVICE DENVER/BOULDER CO
800 AM MDT THU OCT 30 2014

NOTE: "FAIR" INDICATES FEW OR NO CLOUDS BELOW 12000 FEET WITH NO
SIGNIFICANT WEATHER AND/OR OBSTRUCTIONS TO VISIBILITY.

COZ001>005-013-030-031-301500-
...NORTHWEST COLORADO...

CITY           SKY/WX    TMP DP  RH WIND       PRES   REMARKS
CRAIG          PTCLDY    24  19  81 CALM      30.40R
HAYDEN         PTCLDY    32  21  64 SE12      30.40R WCI  23
MEEKER         PTCLDY    29  22  75 CALM      30.41R
MOUNT WERNER   NOT AVBL
STEAMBOAT SPGS PTCLDY    31  24  76 CALM      30.42R
WALDEN         CLEAR     30  23  74 SE7       30.41R WCI  23
$$

COZ006>008-011-301500-
...WEST CENTRAL VALLEYS...

CITY           SKY/WX    TMP DP  RH WIND       PRES   REMARKS
GRAND JUNCTION CLEAR     35  21  56 E7        30.35R WCI  29
MONTROSE       CLEAR     32  21  64 S8        30.41R WCI  25
EAGLE          CLEAR     25  19  80 CALM      30.48R
RIFLE          PTCLDY    30  19  63 CALM      30.41R
DELTA          CLEAR     34  21  60 CALM      30.40R
NUCLA          CLEAR     32  16  51 SE5       30.41R WCI  27
$$

COZ017>023-064>068-301500-
...SOUTHWEST COLORADO...

CITY           SKY/WX    TMP DP  RH WIND       PRES   REMARKS
DURANGO        PTCLDY    27  20  75 N5        30.37R WCI  22
CORTEZ         CLEAR     29  19  66 E6        30.35R WCI  23
PAGOSA SPRINGS PTCLDY    32  20  62 CALM      30.41R
TELLURIDE      CLEAR     35  17  47 E6        30.48S WCI  30
WOLF CREEK PAS NOT AVBL
$$

COZ009-010-012-014-032>034-037-058>063-301500-
...CENTRAL COLORADO...

CITY           SKY/WX    TMP DP  RH WIND       PRES   REMARKS
ASPEN          CLEAR     27  18  69 CALM      30.43S
BUENA VISTA    PTCLDY    26  17  69 CALM      30.43R
COPPER MTN     PTCLDY    28  16  59 W10       30.55R WCI  19
BERTHOUD PASS  FAIR      23  21  93 NW35G43   30.49S WCI   4
COTTONWOOD PAS PTCLDY    43  12  28 S5        30.47R
GUNNISON       CLEAR     18  10  73 CALM      30.49R
KREMMLING      PTCLDY    23  19  86 CALM        N/A
LEADVILLE      CLEAR     29  14  53 NE5       30.47R WCI  24
MONARCH PASS   PTCLDY    30  16  55 W21       30.63F WCI  17
SALIDA         PTCLDY    35  17  46 NW5       30.49R WCI  31
SUNLIGHT       CLEAR     37  18  44 CALM      30.54R
WILKERSON PASS NOT AVBL
$$

COZ069>075-301500-
...SAN LUIS VALLEY/SANGRE DE CRISTO MOUNTAINS...

CITY           SKY/WX    TMP DP  RH WIND       PRES   REMARKS
ALAMOSA        MOCLDY    21  12  68 W5        30.41R WCI  15
LA VETA PASS   PTCLDY    34  12  40 NE7       30.49R WCI  28
SAGUACHE       PTCLDY    34  14  44 NW15      30.43R WCI  24
$$

COZ035-036-038>040-301500-
...NORTHERN COLORADO FRONT RANGE...

CITY           SKY/WX    TMP DP  RH WIND       PRES   REMARKS
DENVER INTL AP PTCLDY    41  25  53 SW7       30.36R
DMNS CITY PARK   N/A     40  26  56 S3        30.38R
AURORA         PTCLDY    36  25  65 S6        30.38R
FRONT RANGE AP NOT AVBL
ERIE MUNI ARPT CLEAR     35  27  71 CALM      30.37R
BOULDER MUN AP CLEAR     41  25  52 SW5       30.37R
CENTENNIAL     PTCLDY    38  26  62 S3        30.37S
BROOMFIELD     PTCLDY    45  25  45 W5        30.37R
FORT COLLINS   CLEAR     41  27  56 CALM      30.38R
LONGMONT       CLEAR     37  27  67 CALM      30.38R
$$

COZ041-046-047-076>085-087-088-301500-
...PIKES PEAK/PALMER DIVIDE AND SOUTHERN FOOTHILLS...

CITY           SKY/WX    TMP DP  RH WIND       PRES   REMARKS
COLO. SPRINGS  CLEAR     43  23  45 N10       30.39R
A. F. ACADEMY  CLEAR     32  21  65 N6        30.39R WCI  26
ELLICOTT       CLEAR     41  23  48 N10       30.36R
FALCON         CLEAR     38  22  52 W7        30.40R
FORT CARSON    CLEAR     41  23  49 N8        30.36R
LIMON          CLEAR     36  23  59 NW3       30.36R
MONUMENT HILL  CLEAR     32  21  64 NW3       30.38S
TRINIDAD       PTCLDY    33  18  53 W9        30.38R WCI  25
$$

COZ042>045-048>051-090-091-301500-
...NORTHEAST COLORADO...

CITY           SKY/WX    TMP DP  RH WIND       PRES   REMARKS
GREELEY ARPT   CLEAR     37  21  52 SW3       30.37R
AKRON          CLEAR     38  25  59 W9        30.33R
BURLINGTON     CLEAR     40  24  53 NW12      30.30R
WRAY           CLEAR     36  27  70 W6        30.29R
STERLING       CLEAR     37  30  75 CALM      30.32R
HOLYOKE        CLEAR     43  30  61 NW8       30.29R
FORT MORGAN    CLEAR     37  25  63 W8        30.35R
$$

COZ086-089-092>099-301500-
...SOUTHEAST COLORADO...

CITY           SKY/WX    TMP DP  RH WIND       PRES   REMARKS
PUEBLO         CLEAR     37  23  56 W6        30.36R
LA JUNTA       CLEAR     39  24  55 W9        30.33R
LAMAR          CLEAR     36  26  67 S9        30.29R
SPRINGFIELD      N/A     42  26  53 NW9       30.30R
$$



USA.gov is the U.S. government's official web portal to all federal, state and local government web resources and services.